Portada
METAR-TAF:

METAR-TAF

Aeroports :

Mount Carmel Municipal Airport

Mount Carmel, Illinois, Estats Units d'Amèrica

latitud: 38-36-23N, longitud: 087-43-36W, altitud: 131 m

Observació

L'informe es va fer fa 36 minuts, a les 01:35 UTC
Vent 3 kt del Sud-Est
Temperatura 26°C
Humitat 74%
Pressió 1014 hPa
Visibilitat: 16.1 km
Cel clar

METAR: KAJG 250135Z AUTO 14003KT 10SM CLR 26/21 A2993 RMK AO2 T02570210

Hora: 21:11 (02:11 UTC)


TAF: manca

Observacions i pronòstics meteorològics de més de 4000 aeroports (METAR i TAF).

Les estacions disponibles són els punts grocs i vermells al mapa.

Posi el ratolí al punt desitjat per veure el nom de l'estació.

Feu clic per veure les observacions i els pronòstics meteorològics.

Per canviar el mapa: feu clic els botons verds amb una creu de color negre per apropar; al botó verd amb un guió per allunyar la imatge; o en les fletxes verdes per a mapes adjacents.


METAR-TAF: